Location: Härggis
(46.9540°N, 8.4897°E)
Time: 02:23:42
(UTC+00:00)

S3M - Pass Details

Date: 27 May 2022
Orbit: 948 x 1005 km, 83.0° (Epoch: 26 June)

Event Time Altitude Azimuth Distance (km) Brightness Sun altitude
Exits shadow 00:24:09 34° 215° (SW) 1,587 4.6 -20.4°
Maximum altitude 00:26:55 62° 282° (WNW) 1,121 4.2 -20.3°
Drops below altitude 10° 00:33:15 10° 3° (N) 2,771 7.5 -20.0°
Sets 00:35:49 0° 7° (N) 3,717 8.6 -19.8°
